Fort Lewis, WA
on Monday, November 5, 2012

Monday
Previous Day Next Day
Daily Summary
 ActualAverage (KOLM)Record (KOLM)
Temperature
Mean Temperature °F 46°F  
Max Temperature 59°F 53°F 64°F (1949)
Min Temperature 43°F 38°F 17°F (2003)
Degree Days
Heating Degree Days 14 19  
Month to date heating degree days 94  
Since 1 July heating degree days 888  
Cooling Degree Days 0 0  
Month to date cooling degree days 0  
Year to date cooling degree days 106  
Growing Degree Days1 (Base °F )  
Moisture
Dew Point 51°F   
Average Humidity 87    
Maximum Humidity 100    
Minimum Humidity 48    
Precipitation
Precipitation 0.02 in 0.26 in 1.88 in (2006)
Month to date precipitation 1.23  
Year to date precipitation 35.14  
Wind
Wind Speed 7 mph   
Max Wind Speed 13 mph   
Max Gust Speed 16 mph   
Visibility 8 miles   
Events     

Key: T is trace of precipitation, MM is missing value
Source: NWS Daily Summary
Time(PST)TemperatureDew PointHumidity Pressure Visibility Wind DirectionWind SpeedGust SpeedPrecipitationEvents Conditions
12:03 AM 59.0°F 57.2°F 94% 30.30 in 8.0 miles SW 10.4 mph - N/A   Overcast
12:11 AM 59.0°F 57.2°F 94% 30.30 in 7.0 miles SSW 10.4 mph - N/A   Light Drizzle
12:12 AM 59.0°F 57.2°F 94% 30.30 in 7.0 miles SSW 10.4 mph - N/A   Overcast
12:22 AM 59.0°F 57.2°F 94% 30.30 in 8.0 miles SSW 9.2 mph - N/A   Overcast
12:33 AM 59.0°F 57.2°F 94% 30.30 in 7.0 miles SSW 6.9 mph - N/A   Overcast
12:35 AM 59.0°F 57.2°F 94% 30.31 in 6.0 miles SSW 8.1 mph - N/A   Light Drizzle
12:45 AM 59.0°F 57.2°F 94% 30.31 in 4.0 miles WSW 8.1 mph - N/A   Light Drizzle
12:50 AM 59.0°F 57.2°F 94% 30.31 in 5.0 miles SW 9.2 mph 16.1 mph N/A   Light Drizzle
12:55 AM 57.2°F 57.2°F 100% 30.30 in 6.0 miles SW 8.1 mph 16.1 mph N/A   Light Drizzle
12:58 AM 57.9°F 56.7°F 96% 30.32 in 6.0 miles SW 8.1 mph 16.1 mph 0.01 in   Light Drizzle
1:01 AM 57.2°F 55.4°F 94% 30.31 in 7.0 miles SW 9.2 mph - N/A   Overcast
1:06 AM 57.2°F 55.4°F 94% 30.31 in 9.0 miles SSW 6.9 mph - N/A   Overcast
1:58 AM 57.4°F 56.5°F 97% 30.33 in 10.0 miles South 6.9 mph - 0.01 in   Overcast
2:58 AM 56.8°F 56.3°F 98% 30.34 in 10.0 miles SSE 4.6 mph - N/A   Overcast
3:18 AM 57.2°F 55.4°F 94% 30.35 in 10.0 miles WNW 3.5 mph - N/A   Overcast
3:43 AM 57.2°F 53.6°F 88% 30.35 in 10.0 miles West 3.5 mph - N/A   Overcast
3:53 AM 57.2°F 55.4°F 94% 30.35 in 10.0 miles Variable 4.6 mph - N/A   Overcast
3:58 AM 56.5°F 54.5°F 93% 30.36 in 10.0 miles NNW 4.6 mph - N/A   Overcast
4:03 AM 55.4°F 55.4°F 100% 30.35 in 10.0 miles NNW 5.8 mph - N/A   Overcast
4:11 AM 55.4°F 53.6°F 94% 30.35 in 10.0 miles NNW 6.9 mph - N/A   Overcast
4:21 AM 55.4°F 53.6°F 94% 30.36 in 10.0 miles North 5.8 mph - N/A   Overcast
4:36 AM 53.6°F 51.8°F 94% 30.36 in 10.0 miles North 4.6 mph - N/A   Overcast
4:58 AM 53.2°F 52.5°F 97% 30.38 in 10.0 miles North 4.6 mph - N/A   Overcast
5:03 AM 53.6°F 51.8°F 94% 30.37 in 10.0 miles North 4.6 mph - N/A   Overcast
5:13 AM 53.6°F 51.8°F 94% 30.37 in 10.0 miles NNW 3.5 mph - N/A   Overcast
5:14 AM 53.6°F 51.8°F 94% 30.37 in 10.0 miles NNW 3.5 mph - N/A   Overcast
5:24 AM 51.8°F 51.8°F 100% 30.37 in 10.0 miles Variable 3.5 mph - N/A   Overcast
5:49 AM 51.8°F 51.8°F 100% 30.38 in 7.0 miles West 1.2 mph - N/A   Overcast
5:58 AM 52.0°F 51.1°F 97% 30.38 in 8.0 miles Calm Calm - N/A   Overcast
6:06 AM 51.8°F 50.0°F 94% 30.36 in 6.0 miles NE 3.5 mph - N/A   Overcast
6:11 AM 51.8°F 50.0°F 94% 30.36 in 6.0 miles ENE 1.2 mph - N/A   Overcast
6:58 AM 51.6°F 50.0°F 94% 30.38 in 7.0 miles NNW 1.2 mph - N/A   Mostly Cloudy
7:58 AM 49.6°F 48.4°F 95% 30.38 in 3.0 miles ESE 1.2 mph - N/A   Partly Cloudy
8:58 AM 52.5°F 51.3°F 95% 30.40 in 7.0 miles Variable 2.3 mph - N/A   Partly Cloudy
9:28 AM 53.6°F 48.2°F 82% 30.38 in 1.8 miles NE 4.6 mph - N/A   Haze
9:33 AM 53.6°F 48.2°F 82% 30.38 in 6.0 miles ENE 5.8 mph - N/A   Haze
9:45 AM 55.4°F 48.2°F 77% 30.38 in 1.0 miles NNE 5.8 mph - N/A   Haze
9:50 AM 55.4°F 48.2°F 77% 30.38 in 1.2 miles NNE 5.8 mph - N/A   Haze
9:58 AM 55.2°F 47.5°F 75% 30.38 in 7.0 miles NE 5.8 mph - N/A   Mostly Cloudy
10:58 AM 57.2°F 44.6°F 63% 30.39 in 7.0 miles NE 6.9 mph - N/A   Clear
11:58 AM 58.6°F 43.7°F 58% 30.38 in 10.0 miles NNE 9.2 mph - N/A   Clear
12:58 PM 59.9°F 40.3°F 48% 30.35 in 10.0 miles NNE 11.5 mph - N/A   Haze
1:58 PM 58.8°F 42.1°F 54% 30.35 in 10.0 miles NNW 12.7 mph - N/A   Clear
2:58 PM 56.8°F 41.9°F 57% 30.32 in 10.0 miles North 9.2 mph - N/A   Clear
3:58 PM 55.4°F 42.8°F 63% 30.32 in 10.0 miles WNW 8.1 mph - N/A   Clear
4:58 PM 52.7°F 41.4°F 65% 30.30 in 10.0 miles NNW 5.8 mph - N/A   Clear
5:58 PM 50.4°F 42.1°F 73% 30.30 in 10.0 miles West 2.3 mph - N/A   Clear
6:58 PM 49.1°F 42.6°F 78% 30.28 in 10.0 miles NW 2.3 mph - N/A   Clear
7:58 PM 49.3°F 43.5°F 81% 30.26 in 10.0 miles NW 2.3 mph - N/A   Overcast
8:58 PM 48.6°F 43.9°F 84% 30.24 in 10.0 miles Calm Calm - N/A   Clear
9:58 PM 45.5°F 43.7°F 93% 30.21 in 10.0 miles ESE 1.2 mph - N/A   Clear
10:58 PM 43.5°F 41.9°F 94% 30.19 in 10.0 miles SSE 2.3 mph - N/A   Clear
11:58 PM 43.0°F 41.9°F 96% 30.18 in 10.0 miles SE 3.5 mph - N/A   Clear
Moon Phase
Nov. 05 Nov. 06 Nov. 13 Nov. 20 Nov. 28
Sunrise:07:00 AM (PST) Moon Rise:10:31 PM (PST)11/5
Sunset:04:47 PM (PST) Moon Set:12:23 PM (PST)11/5

Copyright © 2014 The Weather Underground, Inc.